Simultaneous Nadir Overpasses (SNOs) Predictions

Prediction of SNOs between GOES-16 and METOP-C Satellite Orbit:

Table of predicted SNOs for the next 14.0 days since TLE Epoch: 4/23/2022
Index Date Time (GOES-16) GOES-16 Lat,Lon METOP-C Lat,Lon Distance(km) Time Diff (sec)
1 04/24/2022 02:24:06 -0.06, -75.20 0.31, -73.58 185.59 80
2 04/25/2022 14:42:57 0.05, -75.22 0.71, -78.14 332.13 80
3 04/26/2022 14:24:58 0.05, -75.22 -0.43, -73.15 237.26 80
4 04/28/2022 02:43:57 -0.05, -75.21 -0.61, -77.74 288.06 80
5 04/29/2022 02:20:38 -0.05, -75.21 0.53, -72.75 281.79 80
6 04/30/2022 14:39:28 0.05, -75.25 0.53, -77.30 234.28 80
7 05/01/2022 14:21:28 0.05, -75.26 -0.61, -72.31 335.90 80
8 05/03/2022 02:40:28 -0.04, -75.25 -0.43, -76.90 188.62 80
9 05/04/2022 02:17:08 -0.04, -75.26 0.71, -71.91 381.63 80
10 05/05/2022 14:35:59 0.03, -75.30 0.33, -76.46 133.81 80
11 05/06/2022 14:17:59 0.03, -75.31 -0.82, -71.48 436.81 80
